| time (UTC) | temp F | wind direction | speed MPH | gust MPH | rain 1hr in | rain 24hr in | rain mn in | humidity % | barometer mb |
| 20260507192541 | 50 | 254 | 14.0 | 17.0 | 0.00 | 0.00 | 0.00 | 62 | 1009.5 |
| 20260507192031 | 50 | 264 | 11.0 | 15.0 | 0.00 | 0.00 | 0.00 | 63 | 1009.6 |
| 20260507191535 | 50 | 257 | 10.0 | 15.0 | 0.00 | 0.00 | 0.00 | 61 | 1009.6 |
| 20260507191036 | 50 | 248 | 12.0 | 15.0 | 0.00 | 0.00 | 0.00 | 59 | 1009.7 |
| 20260507190528 | 50 | 244 | 10.0 | 14.0 | 0.00 | 0.00 | 0.00 | 58 | 1009.6 |
| 20260507190101 | 50 | 261 | 9.0 | 14.0 | 0.00 | 0.00 | 0.00 | 55 | 1009.7 |
| 20260507185525 | 50 | 251 | 12.0 | 15.0 | 0.00 | 0.00 | 0.00 | 58 | 1009.7 |
| 20260507185035 | 50 | 260 | 9.0 | 15.0 | 0.00 | 0.00 | 0.00 | 55 | 1009.7 |
| 20260507184521 | 50 | 248 | 11.0 | 15.0 | 0.00 | 0.00 | 0.00 | 58 | 1009.7 |
| 20260507184034 | 50 | 256 | 12.0 | 15.0 | 0.00 | 0.00 | 0.00 | 58 | 1009.7 |
| 20260507183524 | 50 | 253 | 10.0 | 13.0 | 0.00 | 0.00 | 0.00 | 63 | 1009.7 |
| 20260507183040 | 50 | 234 | 11.0 | 16.0 | 0.00 | 0.00 | 0.00 | 64 | 1009.8 |
| 20260507182524 | 50 | 238 | 11.0 | 16.0 | 0.00 | 0.00 | 0.00 | 63 | 1009.8 |
| 20260507182036 | 50 | 249 | 11.0 | 16.0 | 0.00 | 0.00 | 0.00 | 61 | 1009.8 |
| 20260507181526 | 51 | 249 | 12.0 | 15.0 | 0.00 | 0.00 | 0.00 | 60 | 1009.9 |
| 20260507181058 | 51 | 254 | 10.0 | 15.0 | 0.00 | 0.00 | 0.00 | 57 | 1009.9 |
| 20260507180530 | 51 | 281 | 10.0 | 15.0 | 0.00 | 0.00 | 0.00 | 56 | 1010.0 |
| 20260507180041 | 51 | 248 | 9.0 | 13.0 | 0.00 | 0.00 | 0.00 | 62 | 1009.9 |
| 20260507175532 | 51 | 251 | 10.0 | 14.0 | 0.00 | 0.00 | 0.00 | 60 | 1009.9 |
| 20260507175041 | 51 | 269 | 10.0 | 14.0 | 0.00 | 0.00 | 0.00 | 56 | 1010.0 |
| 20260507174540 | 51 | 247 | 9.0 | 14.0 | 0.00 | 0.00 | 0.00 | 61 | 1010.1 |
| 20260507174056 | 52 | 258 | 10.0 | 15.0 | 0.00 | 0.00 | 0.00 | 60 | 1010.0 |
| 20260507173539 | 53 | 269 | 11.0 | 15.0 | 0.00 | 0.00 | 0.00 | 59 | 1010.0 |
| 20260507172532 | 52 | 244 | 9.0 | 15.0 | 0.00 | 0.00 | 0.00 | 58 | 1010.2 |
| 20260507172038 | 52 | 257 | 10.0 | 15.0 | 0.00 | 0.00 | 0.00 | 63 | 1010.3 |
| 20260507171526 | 51 | 250 | 6.0 | 12.0 | 0.00 | 0.00 | 0.00 | 65 | 1010.3 |
| 20260507171038 | 51 | 251 | 9.0 | 13.0 | 0.00 | 0.00 | 0.00 | 64 | 1010.4 |
| 20260507170544 | 50 | 248 | 7.0 | 11.0 | 0.00 | 0.00 | 0.00 | 65 | 1010.4 |
| 20260507170036 | 50 | 257 | 6.0 | 11.0 | 0.00 | 0.00 | 0.00 | 64 | 1010.5 |
| 20260507165544 | 49 | 256 | 4.0 | 9.0 | 0.00 | 0.00 | 0.00 | 63 | 1010.6 |
| 20260507165057 | 49 | 252 | 6.0 | 8.0 | 0.00 | 0.00 | 0.00 | 66 | 1010.7 |
| 20260507164521 | 49 | 241 | 6.0 | 8.0 | 0.00 | 0.00 | 0.00 | 65 | 1010.7 |
| 20260507164035 | 49 | 244 | 6.0 | 9.0 | 0.00 | 0.00 | 0.00 | 64 | 1010.8 |
| 20260507163526 | 50 | 226 | 6.0 | 9.0 | 0.00 | 0.00 | 0.00 | 63 | 1010.8 |
| 20260507163037 | 51 | 261 | 7.0 | 9.0 | 0.00 | 0.00 | 0.00 | 62 | 1010.8 |
| 20260507162525 | 51 | 238 | 7.0 | 9.0 | 0.00 | 0.00 | 0.00 | 62 | 1010.8 |
| 20260507162027 | 50 | 243 | 5.0 | 8.0 | 0.00 | 0.00 | 0.00 | 61 | 1010.9 |
| 20260507161531 | 50 | 236 | 3.0 | 12.0 | 0.00 | 0.00 | 0.00 | 61 | 1011.0 |
| 20260507161025 | 51 | 256 | 6.0 | 12.0 | 0.00 | 0.00 | 0.00 | 63 | 1011.0 |
| 20260507160559 | 51 | 246 | 8.0 | 12.0 | 0.00 | 0.00 | 0.00 | 64 | 1011.0 |
| 20260507160028 | 50 | 300 | 6.0 | 11.0 | 0.00 | 0.00 | 0.00 | 60 | 1011.0 |
| 20260507155538 | 50 | 261 | 8.0 | 11.0 | 0.00 | 0.00 | 0.00 | 63 | 1011.1 |
| 20260507155057 | 49 | 252 | 4.0 | 12.0 | 0.00 | 0.00 | 0.00 | 61 | 1011.1 |
| 20260507154556 | 49 | 245 | 7.0 | 10.0 | 0.00 | 0.00 | 0.00 | 67 | 1011.1 |
| 20260507154026 | 48 | 223 | 2.0 | 9.0 | 0.00 | 0.00 | 0.00 | 67 | 1011.1 |
| 20260507153536 | 48 | 258 | 5.0 | 9.0 | 0.00 | 0.00 | 0.00 | 68 | 1011.2 |
| 20260507153024 | 47 | 35 | 2.0 | 5.0 | 0.00 | 0.00 | 0.00 | 66 | 1011.1 |
| 20260507152532 | 47 | 296 | 3.0 | 6.0 | 0.00 | 0.00 | 0.00 | 66 | 1011.1 |
| 20260507152027 | 48 | 307 | 4.0 | 9.0 | 0.00 | 0.00 | 0.00 | 65 | 1011.1 |
| 20260507151534 | 47 | 245 | 6.0 | 9.0 | 0.00 | 0.00 | 0.00 | 66 | 1011.1 |
| 20260507151031 | 47 | 250 | 4.0 | 9.0 | 0.00 | 0.00 | 0.00 | 66 | 1011.1 |
| 20260507150539 | 47 | 250 | 5.0 | 6.0 | 0.00 | 0.00 | 0.00 | 67 | 1011.1 |
| 20260507150029 | 47 | 1 | 3.0 | 5.0 | 0.00 | 0.00 | 0.00 | 64 | 1011.1 |
| 20260507145600 | 47 | 344 | 2.0 | 7.0 | 0.00 | 0.00 | 0.00 | 64 | 1011.0 |
| 20260507145027 | 48 | 351 | 3.0 | 7.0 | 0.00 | 0.00 | 0.00 | 63 | 1011.0 |
| 20260507144535 | 48 | 20 | 4.0 | 8.0 | 0.00 | 0.00 | 0.00 | 65 | 1010.9 |
| 20260507144023 | 47 | 351 | 3.0 | 5.0 | 0.00 | 0.00 | 0.00 | 67 | 1011.0 |
| 20260507143532 | 46 | 317 | 3.0 | 6.0 | 0.00 | 0.00 | 0.00 | 64 | 1011.0 |
| 20260507143025 | 47 | 262 | 2.0 | 6.0 | 0.00 | 0.00 | 0.00 | 66 | 1011.1 |
| 20260507142534 | 47 | 179 | 2.0 | 7.0 | 0.00 | 0.00 | 0.00 | 65 | 1011.0 |
| 20260507142042 | 47 | 295 | 4.0 | 7.0 | 0.00 | 0.00 | 0.00 | 64 | 1011.0 |
| 20260507141531 | 48 | 13 | 3.0 | 7.0 | 0.00 | 0.00 | 0.00 | 63 | 1011.0 |
| 20260507141042 | 48 | 11 | 4.0 | 7.0 | 0.00 | 0.00 | 0.00 | 64 | 1010.9 |
| 20260507140545 | 47 | 299 | 3.0 | 5.0 | 0.00 | 0.00 | 0.00 | 67 | 1011.0 |
| 20260507140039 | 47 | 28 | 2.0 | 4.0 | 0.00 | 0.00 | 0.00 | 64 | 1011.0 |
| 20260507135547 | 47 | 223 | 2.0 | 6.0 | 0.00 | 0.00 | 0.00 | 65 | 1011.0 |
| 20260507135036 | 47 | 290 | 3.0 | 6.0 | 0.00 | 0.00 | 0.00 | 64 | 1011.0 |
| 20260507134541 | 46 | 250 | 1.0 | 3.0 | 0.00 | 0.00 | 0.00 | 65 | 1011.1 |
| 20260507134042 | 46 | 190 | 1.0 | 4.0 | 0.00 | 0.00 | 0.00 | 67 | 1011.1 |
| 20260507133530 | 45 | 175 | 2.0 | 5.0 | 0.00 | 0.00 | 0.00 | 67 | 1011.1 |
| 20260507133035 | 45 | 186 | 3.0 | 5.0 | 0.00 | 0.00 | 0.00 | 68 | 1011.0 |
| 20260507132544 | 45 | 151 | 4.0 | 5.0 | 0.00 | 0.00 | 0.00 | 68 | 1011.1 |
| 20260507132036 | 46 | 157 | 3.0 | 6.0 | 0.00 | 0.00 | 0.00 | 70 | 1011.1 |
| 20260507131523 | 45 | 137 | 4.0 | 6.0 | 0.00 | 0.00 | 0.00 | 69 | 1011.1 |
| 20260507131032 | 45 | 127 | 4.0 | 5.0 | 0.00 | 0.00 | 0.00 | 69 | 1011.0 |
| 20260507130540 | 45 | 135 | 3.0 | 5.0 | 0.00 | 0.00 | 0.00 | 70 | 1011.1 |
| 20260507130032 | 44 | 170 | 4.0 | 5.0 | 0.00 | 0.00 | 0.00 | 70 | 1011.1 |
| 20260507125551 | 44 | 79 | 3.0 | 4.0 | 0.00 | 0.00 | 0.00 | 70 | 1011.1 |
| 20260507125042 | 44 | 165 | 3.0 | 4.0 | 0.00 | 0.00 | 0.00 | 69 | 1011.1 |
| 20260507124531 | 44 | 107 | 3.0 | 7.0 | 0.00 | 0.00 | 0.00 | 71 | 1011.0 |
| 20260507124024 | 44 | 110 | 4.0 | 7.0 | 0.00 | 0.00 | 0.00 | 72 | 1011.0 |
| 20260507123533 | 43 | 127 | 4.0 | 6.0 | 0.00 | 0.00 | 0.00 | 71 | 1011.1 |
| 20260507123028 | 43 | 157 | 3.0 | 7.0 | 0.00 | 0.00 | 0.00 | 71 | 1011.1 |
| 20260507122536 | 43 | 148 | 5.0 | 8.0 | 0.00 | 0.00 | 0.00 | 72 | 1011.1 |
| 20260507122023 | 43 | 155 | 6.0 | 8.0 | 0.00 | 0.00 | 0.00 | 72 | 1011.0 |
| 20260507121534 | 43 | 144 | 5.0 | 6.0 | 0.00 | 0.00 | 0.00 | 72 | 1011.0 |
| 20260507121046 | 43 | 121 | 4.0 | 6.0 | 0.00 | 0.00 | 0.00 | 72 | 1011.1 |
| 20260507120529 | 43 | 119 | 5.0 | 8.0 | 0.00 | 0.00 | 0.00 | 70 | 1011.1 |
| 20260507120042 | 43 | 113 | 6.0 | 8.0 | 0.00 | 0.00 | 0.00 | 71 | 1011.2 |
| 20260507115530 | 43 | 127 | 6.0 | 8.0 | 0.00 | 0.00 | 0.00 | 71 | 1011.0 |
| 20260507115023 | 42 | 140 | 6.0 | 8.0 | 0.00 | 0.00 | 0.00 | 71 | 1011.0 |
| 20260507114526 | 42 | 126 | 6.0 | 9.0 | 0.00 | 0.00 | 0.00 | 71 | 1011.0 |
| 20260507114036 | 42 | 126 | 6.0 | 9.0 | 0.00 | 0.00 | 0.00 | 71 | 1010.9 |
| 20260507113542 | 42 | 122 | 6.0 | 8.0 | 0.00 | 0.00 | 0.00 | 71 | 1010.9 |
| 20260507113025 | 42 | 103 | 6.0 | 8.0 | 0.00 | 0.00 | 0.00 | 71 | 1010.9 |
| 20260507112534 | 42 | 110 | 5.0 | 7.0 | 0.00 | 0.00 | 0.00 | 71 | 1010.8 |
| 20260507112025 | 41 | 129 | 6.0 | 9.0 | 0.00 | 0.00 | 0.00 | 72 | 1010.9 |
| 20260507111536 | 41 | 108 | 7.0 | 9.0 | 0.00 | 0.00 | 0.00 | 72 | 1010.8 |
| 20260507111026 | 41 | 98 | 6.0 | 7.0 | 0.00 | 0.00 | 0.00 | 71 | 1010.8 |
| 20260507110531 | 41 | 122 | 5.0 | 7.0 | 0.00 | 0.00 | 0.00 | 69 | 1010.7 |
| 20260507110042 | 41 | 115 | 3.0 | 6.0 | 0.00 | 0.00 | 0.00 | 68 | 1010.6 |
| 20260507105529 | 41 | 94 | 3.0 | 6.0 | 0.00 | 0.00 | 0.00 | 68 | 1010.6 |
| 20260507105039 | 41 | 75 | 3.0 | 6.0 | 0.00 | 0.00 | 0.00 | 68 | 1010.6 |
| 20260507104526 | 41 | 96 | 4.0 | 5.0 | 0.00 | 0.00 | 0.00 | 68 | 1010.6 |
| 20260507104036 | 41 | 81 | 3.0 | 6.0 | 0.00 | 0.00 | 0.00 | 69 | 1010.5 |
| 20260507103541 | 41 | 63 | 2.0 | 6.0 | 0.00 | 0.00 | 0.00 | 69 | 1010.5 |
| 20260507103033 | 41 | 49 | 3.0 | 6.0 | 0.00 | 0.00 | 0.00 | 69 | 1010.5 |
| 20260507102522 | 41 | 84 | 4.0 | 6.0 | 0.00 | 0.00 | 0.00 | 68 | 1010.6 |
| 20260507102043 | 41 | 59 | 2.0 | 6.0 | 0.00 | 0.00 | 0.00 | 68 | 1010.6 |
| 20260507101531 | 40 | 96 | 5.0 | 6.0 | 0.00 | 0.00 | 0.00 | 68 | 1010.6 |
| 20260507101023 | 40 | 66 | 4.0 | 5.0 | 0.00 | 0.00 | 0.00 | 67 | 1010.7 |
| 20260507100531 | 40 | 79 | 3.0 | 5.0 | 0.00 | 0.00 | 0.00 | 68 | 1010.7 |
| 20260507100025 | 40 | 98 | 3.0 | 5.0 | 0.00 | 0.00 | 0.00 | 68 | 1010.7 |
| 20260507095529 | 40 | 105 | 4.0 | 5.0 | 0.00 | 0.00 | 0.00 | 68 | 1010.7 |
| 20260507095055 | 40 | 68 | 3.0 | 5.0 | 0.00 | 0.00 | 0.00 | 68 | 1010.8 |
| 20260507094525 | 40 | 63 | 2.0 | 5.0 | 0.00 | 0.00 | 0.00 | 69 | 1010.7 |
| 20260507094035 | 40 | 89 | 3.0 | 5.0 | 0.00 | 0.00 | 0.00 | 69 | 1010.8 |
| 20260507093549 | 40 | 105 | 3.0 | 4.0 | 0.00 | 0.00 | 0.00 | 69 | 1010.7 |
| 20260507093041 | 40 | 96 | 3.0 | 5.0 | 0.00 | 0.00 | 0.00 | 69 | 1010.8 |
| 20260507092525 | 40 | 98 | 3.0 | 4.0 | 0.00 | 0.00 | 0.00 | 69 | 1010.7 |
| 20260507092040 | 40 | 98 | 3.0 | 4.0 | 0.00 | 0.00 | 0.00 | 69 | 1010.7 |
| 20260507091528 | 40 | 105 | 2.0 | 4.0 | 0.00 | 0.00 | 0.00 | 69 | 1010.8 |
| 20260507091041 | 40 | 83 | 2.0 | 4.0 | 0.00 | 0.00 | 0.00 | 69 | 1010.8 |
| 20260507090524 | 40 | 84 | 3.0 | 4.0 | 0.00 | 0.00 | 0.00 | 69 | 1010.9 |
| 20260507085531 | 40 | 89 | 2.0 | 4.0 | 0.00 | 0.00 | 0.00 | 69 | 1010.7 |
| 20260507085040 | 40 | 79 | 2.0 | 4.0 | 0.00 | 0.00 | 0.00 | 68 | 1010.8 |
| 20260507084529 | 40 | 89 | 3.0 | 4.0 | 0.00 | 0.00 | 0.00 | 68 | 1010.8 |
| 20260507084042 | 40 | 114 | 2.0 | 4.0 | 0.00 | 0.00 | 0.00 | 67 | 1010.9 |
| 20260507083528 | 40 | 89 | 2.0 | 4.0 | 0.00 | 0.00 | 0.00 | 68 | 1010.8 |
| 20260507083035 | 40 | 100 | 1.0 | 3.0 | 0.00 | 0.00 | 0.00 | 68 | 1010.8 |
| 20260507082523 | 40 | 79 | 2.0 | 3.0 | 0.00 | 0.00 | 0.00 | 68 | 1010.8 |
| 20260507082034 | 39 | 68 | 2.0 | 3.0 | 0.00 | 0.00 | 0.00 | 68 | 1010.9 |
| 20260507081523 | 39 | 108 | 2.0 | 2.0 | 0.00 | 0.00 | 0.00 | 68 | 1011.0 |
| 20260507081116 | 40 | 72 | 1.0 | 3.0 | 0.00 | 0.00 | 0.00 | 68 | 1010.9 |
| 20260507080527 | 40 | 40 | 2.0 | 3.0 | 0.00 | 0.00 | 0.00 | 68 | 1010.9 |
| 20260507080036 | 40 | 28 | 1.0 | 2.0 | 0.00 | 0.00 | 0.00 | 69 | 1011.0 |
| 20260507075524 | 40 | 56 | 1.0 | 3.0 | 0.00 | 0.00 | 0.00 | 69 | 1010.9 |
| 20260507075039 | 40 | 51 | 2.0 | 3.0 | 0.00 | 0.00 | 0.00 | 68 | 1010.9 |
| 20260507074528 | 40 | 35 | 1.0 | 3.0 | 0.00 | 0.00 | 0.00 | 68 | 1010.8 |
| 20260507074037 | 40 | 40 | 2.0 | 3.0 | 0.00 | 0.00 | 0.00 | 68 | 1010.8 |
| 20260507073547 | 40 | 39 | 1.0 | 3.0 | 0.00 | 0.00 | 0.00 | 68 | 1010.8 |
| 20260507073102 | 40 | 32 | 1.0 | 5.0 | 0.00 | 0.00 | 0.00 | 69 | 1010.8 |
| 20260507072524 | 40 | 59 | 3.0 | 5.0 | 0.00 | 0.00 | 0.00 | 69 | 1010.7 |
| 20260507072036 | 40 | 23 | 1.0 | 6.0 | 0.00 | 0.00 | 0.00 | 68 | 1010.7 |
| 20260507071524 | 40 | 23 | 1.0 | 6.0 | 0.00 | 0.00 | 0.00 | 68 | 1010.8 |
| 20260507071036 | 40 | 89 | 3.0 | 5.0 | 0.00 | 0.00 | 0.00 | 68 | 1010.8 |
| 20260507070540 | 40 | 39 | 2.0 | 5.0 | 0.00 | 0.00 | 0.00 | 68 | 1010.8 |
| 20260507070024 | 40 | 56 | 2.0 | 7.0 | 0.00 | 0.00 | 0.00 | 68 | 1010.8 |
| 20260507065530 | 40 | 96 | 3.0 | 7.0 | 0.00 | 0.00 | 0.00 | 68 | 1010.9 |
| 20260507065039 | 40 | 39 | 2.0 | 6.0 | 0.00 | 0.00 | 0.00 | 68 | 1010.8 |
| 20260507064555 | 40 | 74 | 3.0 | 7.0 | 0.00 | 0.00 | 0.00 | 68 | 1010.8 |
| 20260507064032 | 40 | 84 | 4.0 | 7.0 | 0.00 | 0.00 | 0.00 | 68 | 1010.8 |
| 20260507063538 | 40 | 89 | 4.0 | 7.0 | 0.00 | 0.00 | 0.00 | 67 | 1010.9 |
| 20260507063031 | 40 | 81 | 4.0 | 7.0 | 0.00 | 0.00 | 0.00 | 66 | 1010.9 |
| 20260507062539 | 40 | 101 | 4.0 | 6.0 | 0.00 | 0.00 | 0.00 | 66 | 1011.0 |
| 20260507062026 | 40 | 79 | 3.0 | 7.0 | 0.00 | 0.00 | 0.00 | 66 | 1011.0 |
| 20260507061532 | 40 | 74 | 3.0 | 7.0 | 0.00 | 0.00 | 0.00 | 66 | 1011.1 |
| 20260507061043 | 40 | 96 | 4.0 | 8.0 | 0.00 | 0.00 | 0.00 | 66 | 1011.1 |
| 20260507060531 | 41 | 66 | 5.0 | 8.0 | 0.00 | 0.00 | 0.00 | 66 | 1011.2 |
| 20260507060037 | 41 | 77 | 4.0 | 7.0 | 0.00 | 0.00 | 0.00 | 66 | 1011.3 |
| 20260507055547 | 41 | 79 | 4.0 | 7.0 | 0.00 | 0.00 | 0.00 | 67 | 1011.2 |
| 20260507055039 | 41 | 79 | 4.0 | 7.0 | 0.00 | 0.00 | 0.00 | 67 | 1011.2 |
| 20260507054523 | 41 | 71 | 3.0 | 7.0 | 0.00 | 0.00 | 0.00 | 68 | 1011.2 |
| 20260507054047 | 41 | 100 | 5.0 | 7.0 | 0.00 | 0.00 | 0.00 | 67 | 1011.3 |
| 20260507053536 | 41 | 72 | 2.0 | 5.0 | 0.00 | 0.00 | 0.00 | 68 | 1011.3 |
| 20260507053027 | 41 | 63 | 1.0 | 8.0 | 0.00 | 0.00 | 0.00 | 68 | 1011.3 |
| 20260507052531 | 41 | 86 | 3.0 | 8.0 | 0.00 | 0.00 | 0.00 | 68 | 1011.3 |
| 20260507052043 | 41 | 76 | 4.0 | 8.0 | 0.00 | 0.00 | 0.00 | 68 | 1011.3 |
| 20260507051556 | 41 | 77 | 5.0 | 8.0 | 0.00 | 0.00 | 0.00 | 68 | 1011.4 |
| 20260507051042 | 41 | 82 | 4.0 | 8.0 | 0.00 | 0.00 | 0.00 | 68 | 1011.4 |
| 20260507050557 | 41 | 89 | 3.0 | 8.0 | 0.00 | 0.00 | 0.00 | 68 | 1011.4 |
| 20260507050027 | 41 | 101 | 5.0 | 8.0 | 0.00 | 0.00 | 0.00 | 68 | 1011.4 |
| 20260507045525 | 42 | 63 | 3.0 | 14.0 | 0.00 | 0.00 | 0.00 | 68 | 1011.4 |
| 20260507045055 | 42 | 103 | 11.0 | 14.0 | 0.00 | 0.00 | 0.00 | 69 | 1011.3 |
| 20260507044629 | 42 | 127 | 11.0 | 15.0 | 0.00 | 0.00 | 0.00 | 69 | 1011.3 |
| 20260507044039 | 42 | 110 | 11.0 | 15.0 | 0.00 | 0.00 | 0.00 | 69 | 1011.3 |
| 20260507043553 | 42 | 131 | 11.0 | 16.0 | 0.00 | 0.00 | 0.00 | 69 | 1011.2 |
| 20260507043024 | 42 | 122 | 12.0 | 17.0 | 0.00 | 0.00 | 0.00 | 68 | 1011.2 |
| 20260507042527 | 42 | 122 | 14.0 | 17.0 | 0.00 | 0.00 | 0.00 | 68 | 1011.1 |
| 20260507042046 | 42 | 115 | 14.0 | 17.0 | 0.00 | 0.00 | 0.00 | 68 | 1011.1 |
| 20260507041532 | 42 | 110 | 14.0 | 21.0 | 0.00 | 0.00 | 0.00 | 67 | 1011.1 |
| 20260507041043 | 42 | 89 | 14.0 | 21.0 | 0.00 | 0.00 | 0.00 | 66 | 1011.0 |
| 20260507040527 | 42 | 115 | 14.0 | 21.0 | 0.00 | 0.00 | 0.00 | 68 | 1011.0 |
| 20260507040038 | 42 | 124 | 16.0 | 20.0 | 0.00 | 0.00 | 0.00 | 66 | 1010.9 |
| 20260507035540 | 42 | 115 | 16.0 | 20.0 | 0.00 | 0.00 | 0.00 | 67 | 1010.9 |
| 20260507035030 | 42 | 93 | 11.0 | 17.0 | 0.00 | 0.00 | 0.00 | 62 | 1011.0 |
| 20260507034540 | 42 | 100 | 10.0 | 16.0 | 0.00 | 0.00 | 0.00 | 63 | 1011.1 |
| 20260507034047 | 42 | 108 | 10.0 | 16.0 | 0.00 | 0.00 | 0.00 | 62 | 1011.2 |
| 20260507033559 | 42 | 98 | 11.0 | 15.0 | 0.00 | 0.00 | 0.00 | 62 | 1011.3 |
| 20260507033026 | 42 | 108 | 9.0 | 14.0 | 0.00 | 0.00 | 0.00 | 62 | 1011.3 |
| 20260507032536 | 42 | 79 | 7.0 | 12.0 | 0.00 | 0.00 | 0.00 | 61 | 1011.4 |
| 20260507032100 | 42 | 115 | 6.0 | 12.0 | 0.00 | 0.00 | 0.00 | 60 | 1011.4 |
| 20260507031527 | 42 | 122 | 6.0 | 12.0 | 0.00 | 0.00 | 0.00 | 60 | 1011.6 |
| 20260507031039 | 42 | 94 | 8.0 | 12.0 | 0.00 | 0.00 | 0.00 | 60 | 1011.6 |
| 20260507030528 | 42 | 105 | 8.0 | 15.0 | 0.00 | 0.00 | 0.00 | 61 | 1011.7 |
| 20260507030037 | 42 | 83 | 9.0 | 15.0 | 0.00 | 0.00 | 0.00 | 60 | 1011.7 |
| 20260507025529 | 42 | 76 | 9.0 | 14.0 | 0.00 | 0.00 | 0.00 | 60 | 1011.6 |
| 20260507025023 | 42 | 96 | 8.0 | 12.0 | 0.00 | 0.00 | 0.00 | 61 | 1011.6 |
| 20260507024038 | 42 | 89 | 5.0 | 16.0 | 0.00 | 0.00 | 0.00 | 60 | 1011.5 |
| 20260507023526 | 42 | 79 | 9.0 | 16.0 | 0.00 | 0.00 | 0.00 | 61 | 1011.4 |
| 20260507023036 | 42 | 95 | 9.0 | 15.0 | 0.00 | 0.00 | 0.00 | 61 | 1011.3 |
| 20260507022522 | 42 | 93 | 9.0 | 18.0 | 0.00 | 0.00 | 0.00 | 61 | 1011.4 |
| 20260507022034 | 42 | 75 | 11.0 | 18.0 | 0.00 | 0.00 | 0.00 | 62 | 1011.4 |
| 20260507021524 | 43 | 25 | 9.0 | 18.0 | 0.00 | 0.00 | 0.00 | 61 | 1011.5 |
| 20260507021038 | 43 | 95 | 11.0 | 18.0 | 0.00 | 0.00 | 0.00 | 64 | 1011.5 |
| 20260507020523 | 43 | 77 | 10.0 | 16.0 | 0.00 | 0.00 | 0.00 | 63 | 1011.5 |
| 20260507020039 | 43 | 100 | 7.0 | 12.0 | 0.00 | 0.00 | 0.00 | 64 | 1011.4 |
| 20260507015544 | 43 | 96 | 7.0 | 17.0 | 0.00 | 0.00 | 0.00 | 64 | 1011.4 |
| 20260507015031 | 43 | 105 | 12.0 | 17.0 | 0.00 | 0.00 | 0.00 | 63 | 1011.3 |
| 20260507014540 | 43 | 84 | 7.0 | 15.0 | 0.00 | 0.00 | 0.00 | 64 | 1011.3 |
| 20260507014032 | 44 | 72 | 9.0 | 15.0 | 0.00 | 0.00 | 0.00 | 65 | 1011.3 |
| 20260507013522 | 44 | 71 | 5.0 | 16.0 | 0.00 | 0.00 | 0.00 | 65 | 1011.3 |
| 20260507013031 | 44 | 49 | 8.0 | 16.0 | 0.00 | 0.00 | 0.00 | 66 | 1011.0 |
| 20260507012540 | 45 | 79 | 7.0 | 16.0 | 0.00 | 0.00 | 0.00 | 66 | 1010.8 |
| 20260507012057 | 45 | 58 | 6.0 | 18.0 | 0.00 | 0.00 | 0.00 | 66 | 1010.8 |
| 20260507011522 | 45 | 89 | 13.0 | 18.0 | 0.00 | 0.00 | 0.00 | 64 | 1010.5 |
| 20260507011032 | 45 | 110 | 13.0 | 18.0 | 0.00 | 0.00 | 0.00 | 64 | 1010.5 |
| 20260507010607 | 46 | 95 | 9.0 | 14.0 | 0.00 | 0.00 | 0.00 | 66 | 1010.7 |
| 20260507010054 | 46 | 54 | 5.0 | 12.0 | 0.00 | 0.00 | 0.00 | 66 | 1010.7 |
| 20260507005524 | 46 | 51 | 3.0 | 14.0 | 0.00 | 0.00 | 0.00 | 66 | 1010.5 |
| 20260507005036 | 46 | 96 | 8.0 | 18.0 | 0.00 | 0.00 | 0.00 | 67 | 1010.3 |
| 20260507004524 | 47 | 105 | 9.0 | 22.0 | 0.00 | 0.00 | 0.00 | 66 | 1010.4 |
| 20260507004033 | 47 | 115 | 17.0 | 22.0 | 0.00 | 0.00 | 0.00 | 67 | 1010.2 |
| 20260507003541 | 47 | 103 | 14.0 | 22.0 | 0.00 | 0.00 | 0.00 | 66 | 1010.0 |
| 20260507003035 | 47 | 102 | 18.0 | 22.0 | 0.00 | 0.00 | 0.00 | 67 | 1009.9 |
| 20260507002523 | 47 | 117 | 17.0 | 22.0 | 0.00 | 0.00 | 0.00 | 67 | 1009.8 |
| 20260507002057 | 47 | 101 | 17.0 | 22.0 | 0.00 | 0.00 | 0.00 | 66 | 1009.8 |
| 20260507001527 | 47 | 122 | 16.0 | 22.0 | 0.00 | 0.00 | 0.00 | 67 | 1009.8 |
| 20260507001039 | 47 | 107 | 18.0 | 22.0 | 0.00 | 0.00 | 0.00 | 68 | 1009.8 |
| 20260507000525 | 47 | 108 | 18.0 | 22.0 | 0.00 | 0.00 | 0.00 | 65 | 1009.8 |
| 20260507000038 | 48 | 96 | 13.0 | 22.0 | 0.00 | 0.00 | 0.00 | 63 | 1009.6 |
| 20260506235551 | 49 | 110 | 16.0 | 22.0 | 0.00 | 0.00 | 0.00 | 62 | 1009.6 |
| 20260506235042 | 50 | 84 | 10.0 | 14.0 | 0.00 | 0.00 | 0.00 | 58 | 1009.6 |
| 20260506234546 | 51 | 84 | 7.0 | 10.0 | 0.00 | 0.00 | 0.00 | 58 | 1009.6 |
| 20260506234038 | 52 | 110 | 4.0 | 8.0 | 0.00 | 0.00 | 0.00 | 59 | 1009.6 |
| 20260506233530 | 52 | 314 | 1.0 | 3.0 | 0.00 | 0.00 | 0.00 | 57 | 1009.5 |
| 20260506233039 | 52 | 340 | 0.0 | 4.0 | 0.00 | 0.00 | 0.00 | 55 | 1009.5 |
| 20260506232527 | 52 | 79 | 3.0 | 5.0 | 0.00 | 0.00 | 0.00 | 56 | 1009.5 |
| 20260506232040 | 52 | 39 | 3.0 | 5.0 | 0.00 | 0.00 | 0.00 | 58 | 1009.5 |
| 20260506231530 | 52 | 33 | 2.0 | 4.0 | 0.00 | 0.00 | 0.00 | 56 | 1009.5 |
| 20260506231037 | 52 | 1 | 2.0 | 4.0 | 0.00 | 0.00 | 0.00 | 56 | 1009.5 |
| 20260506230526 | 52 | 314 | 1.0 | 3.0 | 0.00 | 0.00 | 0.00 | 56 | 1009.6 |
| 20260506230038 | 52 | 1 | 1.0 | 4.0 | 0.00 | 0.00 | 0.00 | 56 | 1009.7 |
| 20260506225524 | 52 | 296 | 1.0 | 6.0 | 0.00 | 0.00 | 0.00 | 55 | 1009.7 |
| 20260506225036 | 52 | 32 | 1.0 | 6.0 | 0.00 | 0.00 | 0.00 | 55 | 1009.8 |
| 20260506224524 | 52 | 1 | 2.0 | 13.0 | 0.00 | 0.00 | 0.00 | 55 | 1009.8 |
| 20260506224035 | 53 | 333 | 8.0 | 13.0 | 0.00 | 0.00 | 0.00 | 58 | 1009.7 |
| 20260506223539 | 53 | 223 | 3.0 | 10.0 | 0.00 | 0.00 | 0.00 | 53 | 1009.8 |
| 20260506223036 | 53 | 259 | 5.0 | 10.0 | 0.00 | 0.00 | 0.00 | 53 | 1009.8 |
| 20260506222524 | 53 | 240 | 6.0 | 10.0 | 0.00 | 0.00 | 0.00 | 55 | 1009.7 |
| 20260506222102 | 53 | 224 | 9.0 | 12.0 | 0.00 | 0.00 | 0.00 | 56 | 1009.7 |
| 20260506221552 | 53 | 265 | 8.0 | 12.0 | 0.00 | 0.00 | 0.00 | 58 | 1009.7 |
| 20260506221026 | 53 | 243 | 9.0 | 11.0 | 0.00 | 0.00 | 0.00 | 58 | 1009.7 |
| 20260506220534 | 53 | 281 | 6.0 | 10.0 | 0.00 | 0.00 | 0.00 | 56 | 1009.7 |
| 20260506220045 | 53 | 251 | 6.0 | 11.0 | 0.00 | 0.00 | 0.00 | 56 | 1009.8 |
| 20260506215526 | 53 | 256 | 7.0 | 11.0 | 0.00 | 0.00 | 0.00 | 53 | 1009.7 |
| 20260506215039 | 53 | 236 | 8.0 | 11.0 | 0.00 | 0.00 | 0.00 | 56 | 1009.7 |
| 20260506214523 | 53 | 229 | 7.0 | 10.0 | 0.00 | 0.00 | 0.00 | 58 | 1009.7 |
| 20260506214037 | 52 | 258 | 6.0 | 10.0 | 0.00 | 0.00 | 0.00 | 55 | 1009.7 |
| 20260506213546 | 52 | 179 | 2.0 | 9.0 | 0.00 | 0.00 | 0.00 | 56 | 1009.8 |
| 20260506213034 | 52 | 253 | 6.0 | 12.0 | 0.00 | 0.00 | 0.00 | 55 | 1009.8 |
| 20260506212525 | 53 | 260 | 7.0 | 12.0 | 0.00 | 0.00 | 0.00 | 54 | 1009.8 |
| 20260506212049 | 53 | 311 | 7.0 | 14.0 | 0.00 | 0.00 | 0.00 | 53 | 1009.7 |
| 20260506211601 | 53 | 272 | 6.0 | 14.0 | 0.00 | 0.00 | 0.00 | 51 | 1009.8 |
| 20260506211029 | 54 | 259 | 6.0 | 12.0 | 0.00 | 0.00 | 0.00 | 52 | 1009.7 |
| 20260506210023 | 53 | 226 | 5.0 | 11.0 | 0.00 | 0.00 | 0.00 | 54 | 1009.7 |
| 20260506205528 | 53 | 262 | 8.0 | 11.0 | 0.00 | 0.00 | 0.00 | 52 | 1009.7 |
| 20260506205127 | 53 | 255 | 9.0 | 12.0 | 0.00 | 0.00 | 0.00 | 58 | 1009.7 |
| 20260506204539 | 53 | 235 | 9.0 | 15.0 | 0.00 | 0.00 | 0.00 | 55 | 1009.7 |
| 20260506204024 | 53 | 260 | 11.0 | 15.0 | 0.00 | 0.00 | 0.00 | 55 | 1009.8 |
| 20260506203559 | 53 | 256 | 12.0 | 15.0 | 0.00 | 0.00 | 0.00 | 59 | 1009.8 |
| 20260506203102 | 53 | 225 | 9.0 | 15.0 | 0.00 | 0.00 | 0.00 | 53 | 1009.7 |
| 20260506202525 | 53 | 246 | 11.0 | 15.0 | 0.00 | 0.00 | 0.00 | 59 | 1009.8 |
| 20260506202039 | 53 | 232 | 11.0 | 13.0 | 0.00 | 0.00 | 0.00 | 57 | 1009.9 |
| 20260506201530 | 53 | 231 | 9.0 | 16.0 | 0.00 | 0.00 | 0.00 | 58 | 1009.9 |
| 20260506201048 | 53 | 250 | 9.0 | 16.0 | 0.00 | 0.00 | 0.00 | 55 | 1009.9 |
| 20260506200531 | 53 | 255 | 9.0 | 17.0 | 0.00 | 0.00 | 0.00 | 57 | 1009.9 |
| 20260506200026 | 53 | 234 | 13.0 | 17.0 | 0.00 | 0.00 | 0.00 | 58 | 1009.9 |
| 20260506195536 | 52 | 234 | 9.0 | 15.0 | 0.00 | 0.00 | 0.00 | 60 | 1010.0 |
| 20260506195024 | 53 | 223 | 10.0 | 13.0 | 0.00 | 0.00 | 0.00 | 61 | 1010.0 |
| 20260506194531 | 53 | 240 | 10.0 | 15.0 | 0.00 | 0.00 | 0.00 | 58 | 1010.0 |
| 20260506194025 | 52 | 236 | 11.0 | 14.0 | 0.00 | 0.00 | 0.00 | 59 | 1010.0 |
| 20260506193533 | 51 | 237 | 9.0 | 13.0 | 0.00 | 0.00 | 0.00 | 58 | 1010.0 |
| 20260506193041 | 51 | 220 | 9.0 | 13.0 | 0.00 | 0.00 | 0.00 | 59 | 1010.0 |